Location: Ellerstadt
(49.4644°N, 8.2615°E)
Time: 05:51:32
(UTC+00:00)

IRIDIUM 100 - Pass Details

Date: 26 September 2021
Orbit: 776 x 779 km, 86.4° (Epoch: 15 October)

Event Time Altitude Azimuth Distance (km) Brightness Sun altitude
Exits shadow 00:14:48 18° 33° (NNE) 1,820 ? -40.3°
Drops below altitude 10° 00:16:26 10° 21° (NNE) 2,341 ? -40.2°
Sets 00:19:00 0° 12° (NNE) 3,273 ? -40.1°
